Weather observations for the past three days for
Whidbey Island Naval Air Station - Ault Field
Imperial (Metric)
Date Time (pdt) Wind (mph) Vis. (mi.) Weather Sky Cond. Temperature (ºF) Relative Humidity Wind Chill (°F) Heat Index (°F) Pressure Precipitation (in)
Air Dwpt 6 hour altimeter (in) sea level (mb) 1 hr 3 hr 6 hr
Max. Min.
25 12:53 SW 9 10.00 Partly Cloudy FEW040 SCT065 SCT100 66.9 50 55% 30.26 1025.1
25 11:53 SW 12 10.00 Mostly Cloudy SCT040 SCT065 BKN100 64.9 52 63% 30.26 1025.0
25 10:53 SW 12 10.00 Mostly Cloudy SCT035 BKN065 BKN100 64 51.1 64 54 63% 30.25 1024.5
25 09:53 SW 13 10.00 Mostly Cloudy SCT035 BKN055 BKN100 60.1 51.1 72% 30.23 1024.1
25 08:53 SW 13 10.00 Mostly Cloudy BKN055 BKN095 59 51.1 75% 30.22 1023.7
25 07:53 SW 9 10.00 Mostly Cloudy BKN055 BKN075 BKN150 61 51.1 70% 30.2 1023.2
25 06:53 SW 12 10.00 Mostly Cloudy BKN055 BKN075 BKN150 57 50 78% 30.18 1022.4
25 05:53 SW 7 G 17 10.00 Mostly Cloudy SCT055 BKN075 BKN150 55 51.1 87% 30.17 1021.9
25 04:53 SW 7 10.00 Mostly Cloudy BKN070 BKN150 BKN220 54 51.1 57 54 90% 30.16 1021.5
25 03:53 W 10 10.00 Partly Cloudy FEW020 FEW040 SCT150 SCT220 54 52 93% 30.14 1021.0
25 02:53 W 8 10.00 Partly Cloudy FEW020 FEW040 SCT150 SCT220 54 51.1 90% 30.14 1020.9
25 01:53 W 17 10.00 Mostly Cloudy FEW065 SCT080 BKN150 BKN220 55 51.1 87% 30.12 1020.4
25 00:53 W 17 G 32 10.00 Mostly Cloudy FEW015 BKN042 BKN055 55.9 51.1 84% 30.12 1020.2
24 23:53 W 23 G 41 10.00 Mostly Cloudy and Breezy FEW085 BKN150 BKN220 55.9 52 87% 30.11 1020.0
24 22:53 W 28 G 44 10.00 Mostly Cloudy and Windy FEW060 BKN085 BKN150 57 51.1 60.1 57 81% 30.09 1019.3
24 21:53 W 22 G 36 10.00 Mostly Cloudy and Breezy FEW015 SCT045 BKN060 57 51.1 81% 30.1 1019.5
24 20:53 W 14 10.00 Mostly Cloudy BKN055 BKN070 BKN200 57 50 78% 30.1 1019.6
24 19:53 SW 12 10.00 Mostly Cloudy FEW034 BKN055 BKN180 57.9 50 75% 30.09 1019.1
24 18:53 SW 10 10.00 Mostly Cloudy FEW030 BKN055 BKN180 57.9 51.1 78% 30.09 1019.3
24 17:53 SW 13 10.00 Mostly Cloudy FEW035 BKN060 BKN150 BKN220 59 53.1 81% 30.1 1019.6
24 16:53 SW 15 10.00 Mostly Cloudy SCT035 BKN060 BKN150 BKN220 60.1 53.1 69.1 59 78% 30.11 1019.8
24 15:53 SW 16 10.00 Mostly Cloudy SCT033 BKN060 BKN150 BKN210 61 54 78% 30.12 1020.2
24 14:53 SW 13 10.00 Mostly Cloudy SCT035 BKN055 BKN160 BKN220 60.1 54 80% 30.12 1020.2
24 13:53 SW 13 10.00 Mostly Cloudy SCT045 SCT060 BKN160 BKN220 60.1 54 80% 30.11 1020.1
24 12:53 SW 15 10.00 Mostly Cloudy SCT020 BKN040 64 55 73% 30.11 1020.0
24 11:53 SW 16 G 23 10.00 Mostly Cloudy SCT020 BKN040 BKN100 66 55 68% 30.11 1019.9
24 10:53 SW 10 10.00 Mostly Cloudy FEW010 SCT035 BKN250 66.2 53.6 64% 30.11 0.0
24 09:53 SW 12 10.00 Partly Cloudy FEW040 SCT250 66 53.1 63% 30.1 1019.5
24 08:53 Vrbl 3 10.00 Mostly Cloudy SCT020 SCT040 BKN250 64 51.1 63% 30.11 1019.8
24 07:53 SE 6 10.00 Partly Cloudy SCT020 SCT040 57.9 51.1 78% 30.11 1019.9
24 06:53 SE 6 10.00 Partly Cloudy FEW020 SCT040 55.9 50 81% 30.11 1019.8
24 05:53 SW 6 10.00 Partly Cloudy FEW055 SCT220 55 50 83% 30.1 1019.7
24 04:53 SW 8 10.00 Mostly Cloudy SCT060 BKN220 54 48.9 55.9 54 83% 30.1 1019.5
24 03:53 SW 9 10.00 Mostly Cloudy FEW010 BKN055 BKN220 55.9 50 81% 30.1 1019.6
24 02:53 SW 7 10.00 Partly Cloudy FEW010 FEW150 SCT220 54 50 87% 30.1 1019.5
24 01:53 SW 9 10.00 Partly Cloudy FEW150 SCT220 54 48.9 83% 30.1 1019.7
24 00:53 SW 10 10.00 A Few Clouds FEW150 FEW220 55 50 83% 30.1 1019.6
23 23:53 SW 8 10.00 A Few Clouds FEW150 FEW220 55 50 83% 30.09 1019.4
23 22:53 SW 7 10.00 A Few Clouds FEW150 FEW220 54 50 61 54 87% 30.09 1019.3
23 21:53 SW 6 10.00 Partly Cloudy FEW060 FEW150 SCT220 55 50 83% 30.09 1019.4
23 20:53 SW 7 10.00 Partly Cloudy FEW060 SCT150 SCT220 55 50 83% 30.09 1019.1
23 19:53 SW 5 10.00 Partly Cloudy FEW035 SCT180 SCT230 57.9 51.1 78% 30.09 1019.2
23 18:53 W 6 10.00 Partly Cloudy FEW035 SCT180 SCT230 57.9 51.1 78% 30.1 1019.6
23 17:53 W 8 10.00 Partly Cloudy FEW035 SCT250 59 52 78% 30.11 1020.0
23 16:53 W 9 10.00 Partly Cloudy FEW050 SCT250 61 52 63 59 72% 30.13 1020.8
23 15:53 W 8 10.00 Partly Cloudy FEW040 SCT250 61 52 72% 30.15 1021.3
23 14:53 W 10 10.00 Partly Cloudy FEW040 SCT250 62.1 52 70% 30.16 1021.6
23 13:53 W 9 10.00 A Few Clouds FEW040 62.1 53.1 73% 30.17 1022.1
23 12:53 W 8 10.00 A Few Clouds FEW025 61 52 72% 30.18 1022.4
23 11:53 W 8 10.00 Fair CLR 60.1 52 75% 30.2 1023.1
23 10:53 W 14 10.00 Fair CLR 60.1 51.1 63 52 72% 30.21 1023.4
23 09:53 SW 12 10.00 A Few Clouds FEW025 FEW060 61 51.1 70% 30.22 1023.7
23 08:53 SW 8 10.00 Partly Cloudy FEW025 SCT045 61 51.1 70% 30.23 1023.9
23 07:53 S 8 10.00 Partly Cloudy FEW025 SCT045 57.9 51.1 78% 30.22 1023.7
23 06:53 S 6 10.00 Mostly Cloudy SCT025 BKN045 55.9 52 87% 30.23 1023.9
23 05:53 Calm 10.00 Mostly Cloudy BKN045 53.1 51.1 93% 30.22 1023.6
23 04:53 W 9 10.00 Mostly Cloudy BKN045 54 51.1 57 54 90% 30.22 1023.7
23 03:53 W 15 10.00 A Few Clouds FEW050 54 51.1 90% 30.21 1023.4
23 02:53 W 18 10.00 A Few Clouds FEW050 FEW080 54 52 93% 30.2 1023.1
23 01:53 W 12 10.00 Partly Cloudy FEW050 SCT060 55 51.1 87% 30.2 1023.1
23 00:53 W 15 10.00 Partly Cloudy FEW045 SCT060 55 51.1 87% 30.19 1022.7
22 23:53 W 16 10.00 Mostly Cloudy BKN045 BKN150 57 52 83% 30.18 1022.3
22 22:53 W 17 10.00 Mostly Cloudy SCT045 BKN150 55.9 51.1 64 55.9 84% 30.17 1021.8
22 21:53 W 18 G 25 10.00 Mostly Cloudy SCT045 BKN120 57 50 78% 30.16 1021.6
22 20:53 SW 7 10.00 Partly Cloudy FEW035 FEW080 SCT150 SCT220 57 48.9 74% 30.15 1021.2
22 19:53 W 9 10.00 Mostly Cloudy FEW040 BKN080 BKN150 BKN220 60.1 48.9 67% 30.15 1021.1
22 18:53 W 15 10.00 Mostly Cloudy FEW035 SCT080 BKN150 BKN220 61 50 67% 30.15 1021.2
22 17:53 W 15 G 23 10.00 Mostly Cloudy SCT022 BKN042 BKN120 BKN220 61 52 72% 30.14 1021.1
22 16:53 SW 20 G 28 10.00 Mostly Cloudy SCT020 BKN040 BKN120 BKN220 62.1 52 66 61 70% 30.14 1021.1
22 15:53 SW 15 10.00 Mostly Cloudy SCT022 BKN042 BKN120 BKN220 64 54 70% 30.14 1020.8
22 14:53 SW 15 10.00 Mostly Cloudy SCT022 BKN038 BKN055 BKN220 64 54 70% 30.14 1021.0
22 13:53 SW 16 G 23 10.00 Mostly Cloudy FEW018 BKN034 BKN055 64 54 70% 30.14 1020.9
Date Time (pdt) Wind (mph) Vis. (mi.) Weather Sky Cond. Air Dwpt Max. Min. Relative Humidity Wind Chill (°F) Heat Index (°F) altimeter (in) sea level (mb) 1 hr 3 hr 6 hr
6 hour
Temperature (ºF) Pressure Precipitation (in)